[[{"header":{"parameterUnit":"m.s-1","parameterCategory":1,"la1":30.2991,"la2":30.254,"lo1":-89.0895,"lo2":-89.0444,"dy":0.0017,"dx":0.0017,"nx":28,"ny":28,"refTime":"2023-08-03T09:00:00:Z","depth":0,"parameterNumber":2,"parameterNumberName":"U-component_of_WINDS"},"data":[0,0,0,0,0,0,0,0,0,0,0,0,0,0,0,0,0,0,0,0,0,0,0,0,0,0,0,0,0,0,0,0,0,0,0,0,0,0,0,0,0,0,0,0,0,0,0,0,0,0,0,0,0,0,0,0,0,0,1.1601,1.1602,0,1.1666,1.1667,1.1667,1.1679,1.1678,1.1678,1.1677,1.1747,1.1749,1.1752,0,0,0,0,0,0,0,0,0,0,0,0,0,1.1492,1.1493,1.1601,1.1602,1.1603,1.1666,1.1667,1.1668,1.1679,1.1678,1.1678,1.1677,1.1746,1.1749,1.1752,0,0,0,0,0,0,0,0,0,0,0,0,0,1.1546,1.1494,1.1601,1.1616,1.1618,1.1666,1.1667,1.1668,1.1679,1.1678,1.1677,1.1677,1.1745,1.1749,1.1752,1.1791,0,0,1.1763,1.1765,0,0,0,0,0,0,0,0,1.1543,1.155,1.1613,1.1615,1.1617,1.1663,1.1654,1.1709,1.1679,1.1656,1.1677,1.1676,1.172,1.1726,1.174,1.1794,1.1797,1.1764,1.1766,1.1767,1.1768,0,0,0,0,0,0,0,1.1539,1.1547,1.1627,1.1614,1.1616,1.1621,1.1628,1.1664,1.1692,1.1658,1.1659,1.1666,1.1721,1.1736,1.1742,1.1798,1.1764,1.1767,1.1769,1.177,1.1889,1.189,0,0,0,0,0,0,1.1532,1.1544,1.1625,1.1629,1.1577,1.1623,1.1631,1.1649,1.1692,1.1697,1.1667,1.1667,1.1731,1.1737,1.1744,1.1793,1.1767,1.1771,1.1773,1.1888,1.189,1.1891,0,0,0,0,0,0,1.153,1.1539,1.1622,1.1587,1.1598,1.1626,1.1647,1.1651,1.1666,1.1698,1.1704,1.1677,1.173,1.1739,1.1779,1.1795,1.1772,1.1775,1.1887,1.1889,1.189,1.189,0,0,0,0,0,0,1.1527,1.1538,1.1552,1.1587,1.1599,1.1655,1.1648,1.1653,1.1672,1.1672,1.1709,1.1715,1.173,1.1774,1.1783,1.18,1.1778,1.1886,1.1888,1.189,1.1889,1.1891,1.1894,0,0,0,0,0,1.1523,1.155,1.1553,1.1562,1.1617,1.1656,1.1663,1.168,1.1673,1.1688,1.1709,1.1713,1.1792,1.1778,1.1788,1.1806,1.1885,1.1887,1.1889,1.1888,1.1891,1.1894,0,0,0,0,0,0,1.1517,1.1555,1.1558,1.1597,1.1623,1.1658,1.1677,1.1682,1.1711,1.1711,1.1731,1.1739,1.1779,1.1797,1.178,1.1847,1.1838,1.1843,1.1833,1.1837,1.1839,1.1834,1.1781,0,0,0,0,0,1.152,1.1547,1.1579,1.1611,1.1624,1.1648,1.1665,1.1676,1.1704,1.1715,1.1739,1.1767,1.1799,1.1819,1.1849,1.1892,1.1901,1.1909,1.1912,1.1914,1.1917,1.1943,1.1947,1.1898,1.1898,1.1898,0,0,1.1528,1.1551,1.1567,1.161,1.1632,1.1661,1.1657,1.1688,1.171,1.172,1.176,1.1778,1.1811,1.1853,1.1873,1.1869,1.1933,1.1917,1.1918,1.1921,1.1945,1.195,1.1954,1.19,1.1899,1.1899,0,0,1.1556,1.1576,1.1605,1.1626,1.1658,1.1674,1.1681,1.1715,1.1728,1.1767,1.1776,1.1804,1.1857,1.188,1.1899,1.1937,1.1943,1.1947,1.1959,1.1984,1.1988,1.1991,1.2006,1.2011,1.195,1.195,1.195,0,1.1561,1.1603,1.1619,1.165,1.1669,1.1679,1.171,1.173,1.1771,1.1785,1.178,1.1847,1.187,1.1918,1.1928,1.1942,1.1952,1.1942,1.1985,1.1989,1.1993,1.2007,1.2012,1.195,1.195,1.195,1.195,0,1.1609,1.1638,1.1658,1.1696,1.1718,1.1748,1.177,1.1791,1.18,1.1817,1.1858,1.1886,1.1923,1.1935,1.1944,1.1985,1.1982,1.1981,1.1973,1.1997,1.2011,1.2017,1.1951,1.1951,1.1951,1.1951,0,0,1.1634,1.1681,1.1689,1.1707,1.1743,1.1767,1.1799,1.1834,1.1851,1.188,1.1907,1.1953,1.1952,1.1974,1.1986,1.2007,1.2037,1.2004,1.2006,1.201,1.2085,1.2085,1.2091,1.2041,1.2042,1.2043,1.2082,0,1.1667,1.1722,1.1738,1.1785,1.1814,1.1824,1.1852,1.1879,1.1896,1.1924,1.1943,1.1975,1.1972,1.1985,1.2007,1.2029,1.2053,1.2026,1.2069,1.207,1.206,1.2098,1.2099,1.2134,1.2088,1.2089,1.2089,0,1.1712,1.1741,1.179,1.1824,1.1837,1.1861,1.1895,1.1921,1.1952,1.1963,1.1988,1.1998,1.2033,1.2023,1.2073,1.2054,1.2073,1.2087,1.2088,1.2093,1.2081,1.2105,1.2146,1.2151,1.2098,1.2097,1.2096,0,1.1727,1.1778,1.1814,1.1829,1.1869,1.1887,1.1904,1.1934,1.1955,1.1985,1.1999,1.2033,1.2052,1.2079,1.21,1.209,1.2148,1.2139,1.2159,1.2159,1.2171,1.217,1.2216,1.2182,1.2182,1.2182,1.2182,0,1.1762,1.1792,1.1821,1.1844,1.1878,1.1897,1.1932,1.195,1.1977,1.2005,1.2016,1.2042,1.2067,1.2097,1.2113,1.2152,1.2161,1.2172,1.2176,1.2171,1.217,1.2184,1.2182,1.2183,1.2183,1.2183,1.2183,0,1.1784,1.1805,1.1845,1.188,1.189,1.1914,1.1945,1.1968,1.1986,1.202,1.203,1.2058,1.2094,1.2117,1.2163,1.2174,1.2217,1.222,1.2206,1.2208,1.2227,1.2225,1.2284,1.2293,1.2253,1.2253,1.2253,0,1.1805,1.1828,1.1866,1.1885,1.1902,1.1932,1.1953,1.1974,1.1995,1.2033,1.2052,1.2088,1.2118,1.2175,1.22,1.2236,1.224,1.2259,1.2246,1.224,1.2241,1.224,1.2243,1.2261,1.2261,1.2261,1.2261,0,1.1841,1.185,1.1879,1.1912,1.1936,1.1963,1.199,1.2005,1.2031,1.2055,1.2091,1.2114,1.216,1.2197,1.2235,1.2255,1.2263,1.2265,1.2272,1.2267,1.2258,1.2264,1.2212,1.2264,1.2264,1.2263,1.2263,1.2263,1.1863,1.1885,1.1915,1.1947,1.197,1.1995,1.2019,1.204,1.207,1.2108,1.2119,1.2157,1.2189,1.224,1.2261,1.2292,1.229,1.23,1.2302,1.2304,1.2305,1.2253,1.2299,1.2299,1.2299,1.2299,1.2299,0,1.19,1.192,1.1949,1.1987,1.2012,1.2017,1.2048,1.2069,1.2102,1.2131,1.216,1.2202,1.2238,1.2267,1.2304,1.2323,1.2328,1.2332,1.2331,1.2336,1.2304,1.2295,1.2328,1.2328,1.2328,1.2328,1.2328,1.2328,1.1922,1.1959,1.1972,1.2021,1.2041,1.2078,1.2095,1.2119,1.2142,1.2188,1.2218,1.2236,1.2265,1.2305,1.2338,1.2346,1.2359,1.2363,1.2371,1.2341,1.2338,1.2335,1.2327,1.2365,1.2366,1.2401,1.2401,1.2401]},{"header":{"parameterUnit":"m.s-1","parameterCategory":1,"la1":30.2991,"la2":30.254,"lo1":-89.0895,"lo2":-89.0444,"dy":0.0017,"dx":0.0017,"nx":28,"ny":28,"refTime":"2023-08-03T09:00:00:Z","depth":0,"parameterNumber":3,"parameterNumberName":"V-component_of_WINDS"},"data":[0,0,0,0,0,0,0,0,0,0,0,0,0,0,0,0,0,0,0,0,0,0,0,0,0,0,0,0,0,0,0,0,0,0,0,0,0,0,0,0,0,0,0,0,0,0,0,0,0,0,0,0,0,0,0,0,0,0,-1.1166,-1.1166,0,-1.1131,-1.113,-1.113,-1.1082,-1.1081,-1.108,-1.108,-1.1042,-1.1042,-1.1042,0,0,0,0,0,0,0,0,0,0,0,0,0,-1.1194,-1.1193,-1.1167,-1.1166,-1.1166,-1.1131,-1.113,-1.113,-1.1082,-1.1081,-1.108,-1.1079,-1.1042,-1.1042,-1.1042,0,0,0,0,0,0,0,0,0,0,0,0,0,-1.1172,-1.1193,-1.1167,-1.1138,-1.1135,-1.1131,-1.113,-1.113,-1.1082,-1.1081,-1.108,-1.1079,-1.1042,-1.1042,-1.1042,-1.1063,0,0,-1.104,-1.104,0,0,0,0,0,0,0,0,-1.1174,-1.1171,-1.1142,-1.114,-1.1136,-1.111,-1.1126,-1.1107,-1.1083,-1.1102,-1.108,-1.1078,-1.1065,-1.1063,-1.1059,-1.1061,-1.106,-1.104,-1.104,-1.104,-1.104,0,0,0,0,0,0,0,-1.1175,-1.1173,-1.1152,-1.1142,-1.1138,-1.1127,-1.1122,-1.1122,-1.1091,-1.11,-1.1097,-1.1093,-1.1064,-1.106,-1.1058,-1.1059,-1.104,-1.104,-1.104,-1.104,-1.108,-1.1081,0,0,0,0,0,0,-1.1181,-1.1174,-1.1153,-1.1151,-1.1152,-1.1127,-1.1122,-1.1119,-1.1091,-1.1085,-1.1094,-1.1091,-1.1061,-1.1058,-1.1056,-1.1081,-1.104,-1.104,-1.1039,-1.1078,-1.108,-1.1081,0,0,0,0,0,0,-1.1182,-1.1179,-1.1155,-1.1162,-1.1158,-1.1128,-1.1125,-1.1119,-1.1115,-1.1086,-1.108,-1.1096,-1.106,-1.1057,-1.1062,-1.1079,-1.1039,-1.1039,-1.1077,-1.1079,-1.1081,-1.1129,0,0,0,0,0,0,-1.1183,-1.118,-1.1188,-1.1162,-1.1158,-1.1162,-1.1126,-1.112,-1.1115,-1.111,-1.1086,-1.1081,-1.1059,-1.1063,-1.1062,-1.1077,-1.1039,-1.1075,-1.1078,-1.108,-1.1126,-1.1133,-1.1138,0,0,0,0,0,-1.1184,-1.1202,-1.1188,-1.1186,-1.1167,-1.1162,-1.116,-1.1134,-1.1116,-1.1124,-1.1106,-1.1082,-1.1077,-1.1064,-1.1062,-1.1078,-1.1074,-1.1077,-1.108,-1.1123,-1.1131,-1.1138,0,0,0,0,0,0,-1.1229,-1.1198,-1.1182,-1.1193,-1.1181,-1.1154,-1.1163,-1.1143,-1.1135,-1.1131,-1.1099,-1.1094,-1.1104,-1.1091,-1.1077,-1.1099,-1.1072,-1.1075,-1.1106,-1.1113,-1.1119,-1.1122,-1.1038,0,0,0,0,0,-1.1241,-1.124,-1.1213,-1.1225,-1.122,-1.1193,-1.119,-1.1172,-1.1157,-1.1152,-1.1134,-1.1121,-1.1117,-1.1114,-1.1109,-1.1125,-1.1119,-1.1135,-1.1141,-1.1146,-1.1149,-1.1157,-1.1164,-1.1091,-1.1091,-1.1091,0,0,-1.1264,-1.1247,-1.1248,-1.1234,-1.1222,-1.1223,-1.1189,-1.119,-1.119,-1.1152,-1.1156,-1.1143,-1.1126,-1.1138,-1.1142,-1.1128,-1.1168,-1.115,-1.1154,-1.1154,-1.1161,-1.1168,-1.1174,-1.1093,-1.1092,-1.1092,0,0,-1.1307,-1.1293,-1.1303,-1.1292,-1.1276,-1.1258,-1.126,-1.1237,-1.1227,-1.1232,-1.1203,-1.1203,-1.1196,-1.1186,-1.118,-1.1222,-1.12,-1.1221,-1.1253,-1.1262,-1.1268,-1.1273,-1.1289,-1.1294,-1.1224,-1.1224,-1.1224,0,-1.1337,-1.1337,-1.131,-1.1314,-1.1309,-1.1276,-1.1285,-1.1276,-1.1258,-1.1256,-1.1241,-1.1233,-1.1219,-1.1228,-1.1239,-1.1235,-1.1237,-1.1223,-1.1269,-1.1274,-1.1278,-1.1293,-1.1299,-1.1227,-1.1226,-1.1226,-1.1226,0,-1.1376,-1.1377,-1.1386,-1.1371,-1.1367,-1.1374,-1.1349,-1.1348,-1.1331,-1.1315,-1.132,-1.1304,-1.1295,-1.1296,-1.1278,-1.1303,-1.1295,-1.1275,-1.1248,-1.1288,-1.1302,-1.1307,-1.1231,-1.123,-1.1229,-1.1228,0,0,-1.1444,-1.1416,-1.142,-1.1414,-1.1394,-1.1394,-1.14,-1.1392,-1.1393,-1.1382,-1.1387,-1.1383,-1.1365,-1.1359,-1.134,-1.1348,-1.1384,-1.1327,-1.1326,-1.1339,-1.1412,-1.1427,-1.1434,-1.137,-1.137,-1.1371,-1.1413,0,-1.1483,-1.1492,-1.1469,-1.1484,-1.1485,-1.1454,-1.1459,-1.1448,-1.1434,-1.1433,-1.1417,-1.1416,-1.1392,-1.1388,-1.1395,-1.1378,-1.1398,-1.1375,-1.1374,-1.1374,-1.1379,-1.144,-1.1456,-1.1496,-1.1418,-1.1419,-1.142,0,-1.1529,-1.1523,-1.1538,-1.1519,-1.1519,-1.1524,-1.1516,-1.1515,-1.1502,-1.1492,-1.1486,-1.1465,-1.147,-1.1445,-1.1452,-1.1437,-1.1435,-1.1427,-1.1428,-1.1427,-1.1399,-1.1441,-1.1508,-1.1514,-1.1427,-1.1427,-1.1426,0,-1.1579,-1.1574,-1.1582,-1.1577,-1.1556,-1.156,-1.1552,-1.1538,-1.1535,-1.1529,-1.1527,-1.1521,-1.1517,-1.1513,-1.1491,-1.1475,-1.1502,-1.1474,-1.1493,-1.1494,-1.15,-1.15,-1.1568,-1.1499,-1.1499,-1.1499,-1.1499,0,-1.1625,-1.1635,-1.1604,-1.161,-1.1621,-1.1595,-1.1607,-1.1595,-1.1584,-1.1587,-1.156,-1.1563,-1.1534,-1.1534,-1.1517,-1.1527,-1.1525,-1.1517,-1.1512,-1.1519,-1.1521,-1.1518,-1.1514,-1.15,-1.15,-1.15,-1.1499,0,-1.1681,-1.1661,-1.1668,-1.1648,-1.1643,-1.1653,-1.1635,-1.164,-1.1625,-1.1629,-1.1629,-1.1605,-1.1604,-1.1583,-1.1577,-1.1565,-1.1582,-1.1572,-1.1586,-1.1583,-1.1604,-1.1603,-1.1673,-1.1681,-1.1607,-1.1608,-1.1608,0,-1.1711,-1.1719,-1.17,-1.1701,-1.1693,-1.1694,-1.1692,-1.1668,-1.1666,-1.1654,-1.166,-1.1658,-1.1654,-1.1655,-1.1637,-1.1633,-1.1623,-1.1648,-1.1622,-1.163,-1.1624,-1.1624,-1.1625,-1.1654,-1.1654,-1.1655,-1.1656,0,-1.1768,-1.1758,-1.1756,-1.1752,-1.175,-1.1745,-1.1738,-1.174,-1.1713,-1.1714,-1.1713,-1.1711,-1.1706,-1.1704,-1.1698,-1.1688,-1.1668,-1.1665,-1.1669,-1.1676,-1.1684,-1.1681,-1.1602,-1.1663,-1.1662,-1.1661,-1.1661,-1.1661,-1.1812,-1.1818,-1.1807,-1.1806,-1.1799,-1.1794,-1.1797,-1.1784,-1.1783,-1.1778,-1.1764,-1.1766,-1.1755,-1.1744,-1.1737,-1.1739,-1.1726,-1.1732,-1.1734,-1.1736,-1.174,-1.1685,-1.1738,-1.1737,-1.1737,-1.1737,-1.1737,0,-1.1868,-1.1859,-1.1859,-1.1851,-1.1851,-1.1833,-1.1825,-1.1827,-1.1829,-1.1821,-1.1819,-1.1819,-1.1818,-1.1801,-1.1798,-1.1803,-1.1793,-1.1803,-1.1802,-1.1801,-1.1751,-1.1748,-1.181,-1.181,-1.181,-1.181,-1.181,-1.181,-1.1897,-1.1906,-1.1896,-1.1902,-1.1894,-1.1896,-1.1893,-1.1889,-1.1882,-1.1884,-1.1883,-1.1873,-1.1862,-1.1858,-1.1856,-1.1852,-1.1852,-1.1865,-1.1857,-1.1811,-1.1804,-1.1797,-1.1794,-1.1865,-1.1865,-1.1906,-1.1906,-1.1907]}]]